Back to catalog

FENGYUN 1C DEB

AlivePO
NORAD 30885·DEBRIS·🇨🇳 China

Launched May 10, 1999 from Taiyuan Satellite Launch Center

Loading…

Next Passes (next 24 hours)

TLE

FreshSource: Space-Track

Epoch: Sep 13, 2026, 14:08 UTC

1 30885U 99025AXX 26256.58925823  .00004813  00000-0  11502-2 0  9999
2 30885  99.0119 122.2194 0051092 109.3790 280.7211 14.53341455  9388

Track FENGYUN 1C DEB in real time with AllMySat

Download on the App Store